"read_dt","SO2 (ppb)","flags","PMT voltage (V)","lamp voltage (V)","lamp intensity (Hz)","internal temp (C)","react chamber temp (C)","sample flow (l/min)","pres (mmHg)","SO2 bkg (ppb)","SO2 coefficient"
2014-08-17 00:00:00,1897E-3,5C000000,-0724,0827,12120,030.8,045.6,0.470,725.7,01.19,0.508
2014-08-17 00:01:00,1786E-3,5C000000,-0724,0828,12300,030.8,045.6,0.470,725.7,01.19,0.508
2014-08-17 00:02:00,1966E-3,5C000000,-0724,0829,12250,030.8,045.6,0.470,725.7,01.19,0.508
2014-08-17 00:03:00,1770E-3,5C000000,-0724,0828,12304,030.8,045.6,0.470,725.8,01.19,0.508
2014-08-17 00:04:00,1906E-3,5C000000,-0724,0829,12436,030.8,045.6,0.470,725.8,01.19,0.508
2014-08-17 00:05:00,1860E-3,5C000000,-0724,0827,12300,030.8,045.6,0.470,725.8,01.19,0.508
2014-08-17 00:06:00,1920E-3,5C000000,-0724,0828,12252,030.8,045.6,0.470,725.8,01.19,0.508
2014-08-17 00:07:00,1787E-3,5C000000,-0724,0827,12353,030.8,045.6,0.470,725.9,01.19,0.508
2014-08-17 00:08:00,1872E-3,5C000000,-0724,0828,11946,030.8,045.6,0.470,725.8,01.19,0.508
2014-08-17 00:09:00,1859E-3,5C000000,-0724,0828,12306,030.8,045.6,0.470,725.8,01.19,0.508
2014-08-17 00:10:00,1922E-3,5C000000,-0724,0828,12267,030.8,045.6,0.470,725.7,01.19,0.508
2014-08-17 00:11:00,1830E-3,5C000000,-0724,0828,12036,030.8,045.6,0.470,725.8,01.19,0.508
2014-08-17 00:12:00,1868E-3,5C000000,-0724,0828,12186,030.8,045.6,0.470,725.8,01.19,0.508
2014-08-17 00:13:00,1890E-3,5C000000,-0724,0828,12306,030.8,045.6,0.470,725.8,01.19,0.508
2014-08-17 00:14:00,2116E-3,5C000000,-0724,0828,12302,030.8,045.6,0.470,725.9,01.19,0.508
2014-08-17 00:15:00,1783E-3,5C000000,-0724,0828,12238,030.8,045.6,0.470,725.8,01.19,0.508
2014-08-17 00:16:00,1834E-3,5C000000,-0724,0827,12205,030.8,045.6,0.470,725.8,01.19,0.508
2014-08-17 00:17:00,2032E-3,5C000000,-0724,0828,12189,030.8,045.6,0.470,725.9,01.19,0.508
2014-08-17 00:18:00,1825E-3,5C000000,-0724,0829,12173,030.9,045.6,0.470,725.9,01.19,0.508
2014-08-17 00:19:00,1799E-3,5C000000,-0724,0828,12324,030.8,045.6,0.470,726.0,01.19,0.508
2014-08-17 00:20:00,1968E-3,5C000000,-0724,0828,12113,030.8,045.6,0.470,725.9,01.19,0.508
2014-08-17 00:21:00,1871E-3,5C000000,-0724,0828,12246,030.9,045.6,0.470,726.0,01.19,0.508
2014-08-17 00:22:00,1947E-3,5C000000,-0724,0829,12002,030.9,045.6,0.470,726.0,01.19,0.508
2014-08-17 00:23:00,1901E-3,5C000000,-0724,0827,12232,030.9,045.6,0.470,725.8,01.19,0.508
2014-08-17 00:24:00,1777E-3,5C000000,-0724,0828,12263,030.9,045.6,0.470,725.9,01.19,0.508
2014-08-17 00:25:00,1818E-3,5C000000,-0724,0828,12184,030.9,045.6,0.470,726.0,01.19,0.508
2014-08-17 00:26:00,1905E-3,5C000000,-0724,0827,12023,030.9,045.6,0.470,725.8,01.19,0.508
2014-08-17 00:27:00,1750E-3,5C000000,-0724,0828,12157,030.9,045.6,0.470,726.0,01.19,0.508
2014-08-17 00:28:00,1820E-3,5C000000,-0724,0828,12295,030.9,045.6,0.470,725.8,01.19,0.508
2014-08-17 00:29:00,1900E-3,5C000000,-0724,0828,11929,030.9,045.6,0.470,725.8,01.19,0.508
2014-08-17 00:30:00,1961E-3,5C000000,-0724,0828,12244,030.9,045.6,0.470,725.8,01.19,0.508
2014-08-17 00:31:00,1968E-3,5C000000,-0724,0828,12051,030.9,045.6,0.470,725.7,01.19,0.508
2014-08-17 00:32:00,1725E-3,5C000000,-0724,0828,12082,030.9,045.6,0.470,725.7,01.19,0.508
2014-08-17 00:33:00,1864E-3,5C000000,-0724,0828,12179,030.9,045.6,0.470,725.9,01.19,0.508
2014-08-17 00:34:00,1897E-3,5C000000,-0724,0828,12281,030.9,045.6,0.470,725.9,01.19,0.508
2014-08-17 00:35:00,1873E-3,5C000000,-0724,0828,12177,030.9,045.6,0.470,725.9,01.19,0.508
2014-08-17 00:36:00,1865E-3,5C000000,-0724,0827,12107,030.9,045.6,0.470,725.9,01.19,0.508
2014-08-17 00:37:00,1872E-3,5C000000,-0724,0828,12217,030.9,045.6,0.470,725.9,01.19,0.508
2014-08-17 00:38:00,1860E-3,5C000000,-0724,0828,12141,030.9,045.6,0.470,725.9,01.19,0.508
2014-08-17 00:39:00,2024E-3,5C000000,-0724,0828,12047,030.9,045.6,0.470,725.9,01.19,0.508
2014-08-17 00:40:00,1859E-3,5C000000,-0724,0828,12111,030.9,045.6,0.470,725.9,01.19,0.508
2014-08-17 00:41:00,1905E-3,5C000000,-0724,0828,12210,030.9,045.6,0.470,726.0,01.19,0.508
2014-08-17 00:42:00,1972E-3,5C000000,-0724,0828,12242,030.9,045.6,0.470,726.0,01.19,0.508
2014-08-17 00:43:00,1842E-3,5C000000,-0724,0828,12168,030.9,045.6,0.470,725.9,01.19,0.508
2014-08-17 00:44:00,1823E-3,5C000000,-0724,0827,12251,030.9,045.6,0.470,726.0,01.19,0.508
2014-08-17 00:45:00,1785E-3,5C000000,-0724,0829,12267,030.9,045.6,0.470,726.0,01.19,0.508
2014-08-17 00:46:00,1822E-3,5C000000,-0724,0829,12117,030.9,045.6,0.470,726.2,01.19,0.508
2014-08-17 00:47:00,1719E-3,5C000000,-0724,0828,12188,030.9,045.6,0.470,726.3,01.19,0.508
2014-08-17 00:48:00,1840E-3,5C000000,-0724,0828,12171,030.9,045.6,0.470,726.2,01.19,0.508
2014-08-17 00:49:00,2001E-3,5C000000,-0724,0828,12307,030.9,045.6,0.470,726.2,01.19,0.508
2014-08-17 00:50:00,1763E-3,5C000000,-0724,0829,12284,030.9,045.6,0.470,726.0,01.19,0.508
2014-08-17 00:51:00,2005E-3,5C000000,-0724,0829,12024,030.9,045.6,0.470,726.2,01.19,0.508
2014-08-17 00:52:00,1836E-3,5C000000,-0724,0828,12122,030.9,045.6,0.470,726.2,01.19,0.508
2014-08-17 00:53:00,1889E-3,5C000000,-0724,0829,12106,030.9,045.6,0.470,726.1,01.19,0.508
2014-08-17 00:54:00,1699E-3,5C000000,-0724,0829,12383,030.9,045.6,0.470,726.3,01.19,0.508
2014-08-17 00:55:00,1973E-3,5C000000,-0724,0829,12270,030.9,045.6,0.470,726.3,01.19,0.508
2014-08-17 00:56:00,1745E-3,5C000000,-0724,0828,12221,030.9,045.6,0.470,726.5,01.19,0.508
2014-08-17 00:57:00,1827E-3,5C000000,-0724,0828,12278,030.9,045.6,0.470,726.3,01.19,0.508
2014-08-17 00:58:00,1782E-3,5C000000,-0724,0829,12188,030.9,045.6,0.470,726.4,01.19,0.508
2014-08-17 00:59:00,1867E-3,5C000000,-0724,0827,12196,030.9,045.6,0.470,726.4,01.19,0.508
2014-08-17 01:00:00,1811E-3,5C000000,-0724,0828,12210,030.9,045.6,0.470,726.4,01.19,0.508
2014-08-17 01:01:00,1876E-3,5C000000,-0724,0827,12103,030.9,045.6,0.470,726.5,01.19,0.508
2014-08-17 01:02:00,1844E-3,5C000000,-0724,0828,12198,030.9,045.6,0.470,726.4,01.19,0.508
2014-08-17 01:03:00,1787E-3,5C000000,-0724,0828,11928,030.9,045.6,0.470,726.5,01.19,0.508
2014-08-17 01:04:00,1810E-3,5C000000,-0724,0829,12281,030.9,045.6,0.470,726.5,01.19,0.508
2014-08-17 01:05:00,1913E-3,5C000000,-0724,0829,12205,030.9,045.6,0.470,726.4,01.19,0.508
2014-08-17 01:06:00,1798E-3,5C000000,-0724,0828,12391,030.9,045.6,0.470,726.5,01.19,0.508
2014-08-17 01:07:00,1745E-3,5C000000,-0724,0828,12270,030.9,045.6,0.470,726.3,01.19,0.508
2014-08-17 01:08:00,1982E-3,5C000000,-0724,0828,12372,030.9,045.6,0.470,726.2,01.19,0.508
2014-08-17 01:09:00,1857E-3,5C000000,-0724,0827,12231,030.9,045.6,0.470,726.4,01.19,0.508
2014-08-17 01:10:00,1741E-3,5C000000,-0724,0828,12274,030.9,045.6,0.470,726.3,01.19,0.508
2014-08-17 01:11:00,1860E-3,5C000000,-0724,0828,12271,030.9,045.6,0.470,726.4,01.19,0.508
2014-08-17 01:12:00,1840E-3,5C000000,-0724,0828,12203,030.9,045.6,0.470,726.5,01.19,0.508
2014-08-17 01:13:00,1823E-3,5C000000,-0724,0828,12329,030.9,045.6,0.470,726.5,01.19,0.508
2014-08-17 01:14:00,1838E-3,5C000000,-0724,0829,12329,030.9,045.6,0.470,726.5,01.19,0.508
2014-08-17 01:15:00,1855E-3,5C000000,-0724,0829,12336,030.9,045.6,0.470,726.6,01.19,0.508
2014-08-17 01:16:00,1875E-3,5C000000,-0724,0829,12322,030.9,045.6,0.470,726.5,01.19,0.508
2014-08-17 01:17:00,1889E-3,5C000000,-0724,0828,12261,030.9,045.6,0.470,726.5,01.19,0.508
2014-08-17 01:18:00,1842E-3,5C000000,-0724,0828,12294,030.9,045.6,0.470,726.5,01.19,0.508
2014-08-17 01:19:00,1805E-3,5C000000,-0724,0828,12238,030.9,045.6,0.470,726.4,01.19,0.508
2014-08-17 01:20:00,1940E-3,5C000000,-0724,0828,12174,030.9,045.6,0.470,726.5,01.19,0.508
2014-08-17 01:21:00,1814E-3,5C000000,-0724,0828,12183,030.9,045.6,0.470,726.5,01.19,0.508
2014-08-17 01:22:00,1852E-3,5C000000,-0724,0828,12281,030.9,045.6,0.470,726.5,01.19,0.508
2014-08-17 01:23:00,1758E-3,5C000000,-0724,0827,12293,030.9,045.6,0.470,726.4,01.19,0.508
2014-08-17 01:24:00,1843E-3,5C000000,-0724,0829,12169,030.9,045.6,0.470,726.6,01.19,0.508
2014-08-17 01:25:00,1952E-3,5C000000,-0724,0829,12225,030.9,045.6,0.470,726.7,01.19,0.508
2014-08-17 01:26:00,1973E-3,5C000000,-0724,0829,12262,030.9,045.6,0.470,726.5,01.19,0.508
2014-08-17 01:27:00,1808E-3,5C000000,-0724,0828,12166,030.9,045.6,0.470,726.6,01.19,0.508
2014-08-17 01:28:00,1874E-3,5C000000,-0724,0828,12282,030.9,045.6,0.470,726.5,01.19,0.508
2014-08-17 01:29:00,1740E-3,5C000000,-0724,0828,12076,030.9,045.6,0.470,726.7,01.19,0.508
2014-08-17 01:30:00,1813E-3,5C000000,-0724,0827,12236,030.9,045.6,0.470,726.9,01.19,0.508
2014-08-17 01:31:00,1878E-3,5C000000,-0724,0828,12242,030.9,045.6,0.470,726.9,01.19,0.508
2014-08-17 01:32:00,1844E-3,5C000000,-0724,0828,12324,030.9,045.6,0.470,726.7,01.19,0.508
2014-08-17 01:33:00,1663E-3,5C000000,-0724,0828,12128,030.9,045.6,0.470,726.9,01.19,0.508
2014-08-17 01:34:00,1835E-3,5C000000,-0724,0828,12099,030.9,045.6,0.470,727.0,01.19,0.508
2014-08-17 01:35:00,1823E-3,5C000000,-0724,0829,12107,030.9,045.6,0.470,727.0,01.19,0.508
2014-08-17 01:36:00,1774E-3,5C000000,-0724,0827,12279,030.9,045.6,0.470,727.0,01.19,0.508
2014-08-17 01:37:00,1944E-3,5C000000,-0724,0830,12253,030.9,045.6,0.470,727.1,01.19,0.508
2014-08-17 01:38:00,1814E-3,5C000000,-0724,0828,12330,030.9,045.6,0.470,727.0,01.19,0.508
2014-08-17 01:39:00,1786E-3,5C000000,-0724,0827,12270,030.9,045.6,0.470,726.9,01.19,0.508
2014-08-17 01:40:00,1787E-3,5C000000,-0724,0828,12077,030.9,045.6,0.471,726.9,01.19,0.508
2014-08-17 01:41:00,1902E-3,5C000000,-0724,0828,12293,030.9,045.6,0.471,727.0,01.19,0.508
2014-08-17 01:42:00,1811E-3,5C000000,-0724,0827,12221,030.9,045.6,0.471,727.1,01.19,0.508
2014-08-17 01:43:00,1856E-3,5C000000,-0724,0827,12209,030.9,045.6,0.470,727.1,01.19,0.508
2014-08-17 01:44:00,1834E-3,5C000000,-0724,0828,12227,030.9,045.6,0.470,727.1,01.19,0.508
2014-08-17 01:45:00,1914E-3,5C000000,-0724,0829,12299,030.9,045.6,0.470,727.1,01.19,0.508
2014-08-17 01:46:00,1829E-3,5C000000,-0724,0828,12163,030.9,045.6,0.470,727.1,01.19,0.508
2014-08-17 01:47:00,1744E-3,5C000000,-0724,0828,12291,030.9,045.6,0.470,727.1,01.19,0.508
2014-08-17 01:48:00,1775E-3,5C000000,-0724,0827,12227,030.9,045.6,0.470,727.1,01.19,0.508
2014-08-17 01:49:00,1672E-3,5C000000,-0724,0828,12332,030.9,045.6,0.470,727.1,01.19,0.508
2014-08-17 01:50:00,1898E-3,5C000000,-0724,0828,12025,030.9,045.6,0.471,727.1,01.19,0.508
2014-08-17 01:51:00,1946E-3,5C000000,-0724,0828,12268,030.9,045.6,0.471,727.2,01.19,0.508
2014-08-17 01:52:00,1859E-3,5C000000,-0724,0828,12290,030.9,045.6,0.471,727.2,01.19,0.508
2014-08-17 01:53:00,1859E-3,5C000000,-0724,0827,12249,030.9,045.6,0.471,727.2,01.19,0.508
2014-08-17 01:54:00,1836E-3,5C000000,-0724,0829,12159,030.9,045.6,0.470,727.2,01.19,0.508
2014-08-17 01:55:00,1761E-3,5C000000,-0724,0828,12197,030.9,045.6,0.470,727.2,01.19,0.508
2014-08-17 01:56:00,1897E-3,5C000000,-0724,0828,12248,030.9,045.6,0.470,727.1,01.19,0.508
2014-08-17 01:57:00,1713E-3,5C000000,-0724,0828,12046,030.9,045.6,0.470,727.2,01.19,0.508
2014-08-17 01:58:00,1759E-3,5C000000,-0724,0828,12145,030.9,045.6,0.470,727.3,01.19,0.508
2014-08-17 01:59:00,1891E-3,5C000000,-0724,0828,12164,030.9,045.6,0.470,727.4,01.19,0.508
2014-08-17 02:00:00,1864E-3,5C000000,-0724,0828,12281,030.9,045.6,0.471,727.3,01.19,0.508
2014-08-17 02:01:00,1802E-3,5C000000,-0724,0828,12131,030.9,045.6,0.471,727.3,01.19,0.508
2014-08-17 02:02:00,1959E-3,5C000000,-0724,0827,12205,030.9,045.6,0.471,727.3,01.19,0.508
2014-08-17 02:03:00,1710E-3,5C000000,-0724,0830,12064,030.9,045.6,0.471,727.4,01.19,0.508
2014-08-17 02:04:00,1848E-3,5C000000,-0724,0827,12301,030.9,045.6,0.470,727.4,01.19,0.508
2014-08-17 02:05:00,1966E-3,5C000000,-0724,0829,12273,030.9,045.6,0.470,727.4,01.19,0.508
2014-08-17 02:06:00,1743E-3,5C000000,-0724,0828,12201,030.9,045.6,0.470,727.4,01.19,0.508
2014-08-17 02:07:00,1747E-3,5C000000,-0724,0829,12301,030.9,045.6,0.470,727.3,01.19,0.508
2014-08-17 02:08:00,1772E-3,5C000000,-0724,0828,12266,030.8,045.6,0.470,727.4,01.19,0.508
2014-08-17 02:09:00,1932E-3,5C000000,-0724,0827,12125,030.9,045.6,0.471,727.3,01.19,0.508
2014-08-17 02:10:00,1924E-3,5C000000,-0724,0828,12295,030.8,045.6,0.471,727.3,01.19,0.508
2014-08-17 02:11:00,1845E-3,5C000000,-0724,0828,12357,030.9,045.6,0.471,727.1,01.19,0.508
2014-08-17 02:12:00,1830E-3,5C000000,-0724,0828,12269,030.9,045.6,0.471,727.4,01.19,0.508
2014-08-17 02:13:00,1796E-3,5C000000,-0724,0828,12215,030.9,045.6,0.471,727.4,01.19,0.508
2014-08-17 02:14:00,1737E-3,5C000000,-0724,0828,12261,030.9,045.6,0.470,727.3,01.19,0.508
2014-08-17 02:15:00,1770E-3,5C000000,-0724,0828,12115,030.9,045.6,0.470,727.3,01.19,0.508
2014-08-17 02:16:00,1804E-3,5C000000,-0724,0829,12370,030.9,045.6,0.470,727.4,01.19,0.508
2014-08-17 02:17:00,1931E-3,5C000000,-0724,0828,12139,030.9,045.6,0.470,727.3,01.19,0.508
2014-08-17 02:18:00,1826E-3,5C000000,-0724,0828,12203,030.8,045.6,0.470,727.4,01.19,0.508
2014-08-17 02:19:00,2056E-3,5C000000,-0724,0828,12287,030.8,045.6,0.470,727.3,01.19,0.508
2014-08-17 02:20:00,1784E-3,5C000000,-0724,0827,12172,030.8,045.6,0.471,727.3,01.19,0.508
2014-08-17 02:21:00,1835E-3,5C000000,-0724,0828,12223,030.8,045.6,0.471,727.4,01.19,0.508
2014-08-17 02:22:00,1892E-3,5C000000,-0724,0828,11809,030.8,045.6,0.471,727.4,01.19,0.508
2014-08-17 02:23:00,1745E-3,5C000000,-0724,0829,12216,030.9,045.6,0.471,727.3,01.19,0.508
2014-08-17 02:24:00,1923E-3,5C000000,-0724,0829,12309,030.8,045.6,0.471,727.6,01.19,0.508
2014-08-17 02:25:00,1769E-3,5C000000,-0724,0828,12098,030.8,045.6,0.471,727.5,01.19,0.508
2014-08-17 02:26:00,1858E-3,5C000000,-0724,0828,12207,030.8,045.6,0.470,727.6,01.19,0.508
2014-08-17 02:27:00,1878E-3,5C000000,-0724,0828,12160,030.8,045.6,0.470,727.6,01.19,0.508
2014-08-17 02:28:00,1732E-3,5C000000,-0724,0828,12172,030.8,045.6,0.471,727.6,01.19,0.508
2014-08-17 02:29:00,1711E-3,5C000000,-0724,0827,12121,030.8,045.6,0.471,727.6,01.19,0.508
2014-08-17 02:30:00,1837E-3,5C000000,-0724,0827,12033,030.8,045.6,0.471,727.6,01.19,0.508
2014-08-17 02:31:00,1775E-3,5C000000,-0724,0828,12347,030.8,045.6,0.471,727.7,01.19,0.508
2014-08-17 02:32:00,1814E-3,5C000000,-0724,0829,12139,030.8,045.6,0.471,727.6,01.19,0.508
2014-08-17 02:33:00,1845E-3,5C000000,-0724,0829,12201,030.8,045.6,0.471,727.6,01.19,0.508
2014-08-17 02:34:00,1865E-3,5C000000,-0724,0829,12201,030.8,045.6,0.471,727.6,01.19,0.508
2014-08-17 02:35:00,1959E-3,5C000000,-0724,0827,12083,030.8,045.6,0.470,727.5,01.19,0.508
2014-08-17 02:36:00,1940E-3,5C000000,-0724,0829,12093,030.8,045.6,0.470,727.6,01.19,0.508
2014-08-17 02:37:00,1841E-3,5C000000,-0724,0829,12226,030.8,045.6,0.470,727.6,01.19,0.508
2014-08-17 02:38:00,1899E-3,5C000000,-0724,0828,12201,030.8,045.6,0.471,727.5,01.19,0.508
2014-08-17 02:39:00,1847E-3,5C000000,-0724,0827,12160,030.8,045.6,0.471,727.6,01.19,0.508
2014-08-17 02:40:00,1796E-3,5C000000,-0724,0828,12217,030.8,045.6,0.471,727.6,01.19,0.508
2014-08-17 02:41:00,1879E-3,5C000000,-0724,0828,12302,030.8,045.6,0.471,727.6,01.19,0.508
2014-08-17 02:42:00,1785E-3,5C000000,-0724,0828,12251,030.8,045.6,0.471,727.7,01.19,0.508
2014-08-17 02:43:00,1758E-3,5C000000,-0724,0828,12393,030.8,045.6,0.471,727.7,01.19,0.508
2014-08-17 02:44:00,1794E-3,5C000000,-0724,0828,12115,030.8,045.6,0.470,727.8,01.19,0.508
2014-08-17 02:45:00,1761E-3,5C000000,-0724,0828,12205,030.8,045.6,0.470,727.6,01.19,0.508
2014-08-17 02:46:00,1827E-3,5C000000,-0724,0829,12137,030.8,045.6,0.471,727.6,01.19,0.508
2014-08-17 02:47:00,1822E-3,5C000000,-0724,0828,12327,030.8,045.6,0.471,727.7,01.19,0.508
2014-08-17 02:48:00,1886E-3,5C000000,-0724,0828,12206,030.8,045.6,0.471,727.8,01.19,0.508
2014-08-17 02:49:00,1763E-3,5C000000,-0724,0829,12293,030.8,045.6,0.471,727.6,01.19,0.508
2014-08-17 02:50:00,1697E-3,5C000000,-0724,0828,12041,030.8,045.6,0.471,727.7,01.19,0.508
2014-08-17 02:51:00,1741E-3,5C000000,-0724,0828,12223,030.8,045.6,0.471,727.7,01.19,0.508
2014-08-17 02:52:00,1858E-3,5C000000,-0724,0828,12293,030.8,045.6,0.470,727.8,01.19,0.508
2014-08-17 02:53:00,1841E-3,5C000000,-0724,0828,12299,030.8,045.6,0.470,727.7,01.19,0.508
2014-08-17 02:54:00,1752E-3,5C000000,-0724,0827,12096,030.8,045.6,0.470,727.7,01.19,0.508
2014-08-17 02:55:00,1870E-3,5C000000,-0724,0829,12343,030.8,045.6,0.471,727.7,01.19,0.508
2014-08-17 02:56:00,1717E-3,5C000000,-0724,0828,12185,030.8,045.6,0.471,727.8,01.19,0.508
2014-08-17 02:57:00,1897E-3,5C000000,-0724,0827,12407,030.8,045.6,0.471,727.8,01.19,0.508
2014-08-17 02:58:00,1761E-3,5C000000,-0724,0828,12408,030.8,045.6,0.471,727.8,01.19,0.508
2014-08-17 02:59:00,1835E-3,5C000000,-0724,0828,12260,030.8,045.6,0.471,727.7,01.19,0.508
2014-08-17 03:00:00,1820E-3,5C000000,-0724,0828,12281,030.8,045.6,0.471,727.6,01.19,0.508
2014-08-17 03:01:00,1878E-3,5C000000,-0724,0828,12254,030.8,045.6,0.471,727.9,01.19,0.508
2014-08-17 03:02:00,1973E-3,5C000000,-0724,0828,12207,030.8,045.5,0.471,727.8,01.19,0.508
2014-08-17 03:03:00,1851E-3,5C000000,-0724,0828,12205,030.8,045.6,0.470,727.7,01.19,0.508
2014-08-17 03:04:00,1881E-3,5C000000,-0724,0828,12113,030.8,045.6,0.471,727.8,01.19,0.508
2014-08-17 03:05:00,1785E-3,5C000000,-0724,0829,12211,030.8,045.6,0.471,727.8,01.19,0.508
2014-08-17 03:06:00,1818E-3,5C000000,-0724,0828,12342,030.8,045.6,0.471,727.7,01.19,0.508
2014-08-17 03:07:00,1977E-3,5C000000,-0724,0827,11961,030.8,045.6,0.471,727.6,01.19,0.508
2014-08-17 03:08:00,1826E-3,5C000000,-0724,0828,12425,030.8,045.6,0.471,727.7,01.19,0.508
2014-08-17 03:09:00,1804E-3,5C000000,-0724,0828,12415,030.7,045.6,0.471,727.9,01.19,0.508
2014-08-17 03:10:00,1820E-3,5C000000,-0724,0828,12175,030.8,045.6,0.470,727.7,01.19,0.508
2014-08-17 03:11:00,1771E-3,5C000000,-0724,0828,12216,030.8,045.6,0.470,727.7,01.19,0.508
2014-08-17 03:12:00,1893E-3,5C000000,-0724,0828,11872,030.7,045.6,0.471,727.8,01.19,0.508
2014-08-17 03:13:00,1907E-3,5C000000,-0724,0828,12205,030.7,045.6,0.471,727.8,01.19,0.508
2014-08-17 03:14:00,1789E-3,5C000000,-0724,0827,12116,030.7,045.6,0.471,727.8,01.19,0.508
2014-08-17 03:15:00,1853E-3,5C000000,-0724,0828,12307,030.7,045.6,0.471,727.9,01.19,0.508
2014-08-17 03:16:00,1827E-3,5C000000,-0724,0828,12318,030.7,045.6,0.471,727.8,01.19,0.508
2014-08-17 03:17:00,1886E-3,5C000000,-0724,0828,12237,030.7,045.6,0.471,727.8,01.19,0.508
2014-08-17 03:18:00,1885E-3,5C000000,-0724,0828,12206,030.7,045.6,0.470,727.7,01.19,0.508
2014-08-17 03:19:00,1916E-3,5C000000,-0724,0828,12297,030.7,045.6,0.471,727.9,01.19,0.508
2014-08-17 03:20:00,1798E-3,5C000000,-0724,0827,12270,030.7,045.6,0.471,727.8,01.19,0.508
2014-08-17 03:21:00,1841E-3,5C000000,-0724,0828,12140,030.7,045.6,0.471,727.7,01.19,0.508
2014-08-17 03:22:00,1768E-3,5C000000,-0724,0828,12183,030.7,045.6,0.471,727.8,01.19,0.508
2014-08-17 03:23:00,1890E-3,5C000000,-0724,0828,12261,030.7,045.6,0.471,727.9,01.19,0.508
2014-08-17 03:24:00,1822E-3,5C000000,-0724,0828,12255,030.7,045.6,0.471,727.8,01.19,0.508
2014-08-17 03:25:00,1765E-3,5C000000,-0724,0828,12176,030.7,045.6,0.471,728.1,01.19,0.508
2014-08-17 03:26:00,1827E-3,5C000000,-0724,0829,12340,030.7,045.6,0.471,728.0,01.19,0.508
2014-08-17 03:27:00,1866E-3,5C000000,-0724,0829,12352,030.7,045.6,0.471,728.0,01.19,0.508
2014-08-17 03:28:00,1915E-3,5C000000,-0724,0828,12322,030.7,045.6,0.471,728.0,01.19,0.508
2014-08-17 03:29:00,1881E-3,5C000000,-0724,0828,12209,030.7,045.6,0.471,728.0,01.19,0.508
2014-08-17 03:30:00,1868E-3,5C000000,-0724,0828,12355,030.7,045.6,0.471,728.0,01.19,0.508
2014-08-17 03:31:00,1857E-3,5C000000,-0724,0827,12144,030.7,045.6,0.471,728.0,01.19,0.508
2014-08-17 03:32:00,1905E-3,5C000000,-0724,0828,12300,030.7,045.6,0.471,728.0,01.19,0.508
2014-08-17 03:33:00,1761E-3,5C000000,-0724,0828,12291,030.7,045.6,0.471,728.0,01.19,0.508
2014-08-17 03:34:00,1860E-3,5C000000,-0724,0827,12213,030.7,045.6,0.471,727.9,01.19,0.508
2014-08-17 03:35:00,1887E-3,5C000000,-0724,0828,12202,030.7,045.6,0.471,728.0,01.19,0.508
2014-08-17 03:36:00,2000E-3,5C000000,-0724,0829,12128,030.7,045.6,0.471,728.0,01.19,0.508
2014-08-17 03:37:00,1847E-3,5C000000,-0724,0827,12435,030.7,045.6,0.471,728.1,01.19,0.508
2014-08-17 03:38:00,1696E-3,5C000000,-0724,0830,12328,030.7,045.6,0.471,728.1,01.19,0.508
2014-08-17 03:39:00,1688E-3,5C000000,-0724,0827,12272,030.7,045.6,0.471,727.9,01.19,0.508
2014-08-17 03:40:00,1758E-3,5C000000,-0724,0828,12272,030.7,045.6,0.471,728.0,01.19,0.508
2014-08-17 03:41:00,1766E-3,5C000000,-0724,0828,12120,030.7,045.6,0.471,728.1,01.19,0.508
2014-08-17 03:42:00,1759E-3,5C000000,-0724,0829,12319,030.7,045.6,0.471,727.9,01.19,0.508
2014-08-17 03:43:00,1770E-3,5C000000,-0724,0828,12235,030.7,045.6,0.471,728.1,01.19,0.508
2014-08-17 03:44:00,1802E-3,5C000000,-0724,0829,12284,030.7,045.6,0.471,728.2,01.19,0.508
2014-08-17 03:45:00,1867E-3,5C000000,-0724,0828,12391,030.7,045.6,0.471,728.2,01.19,0.508
2014-08-17 03:46:00,1797E-3,5C000000,-0724,0828,12178,030.7,045.6,0.471,728.2,01.19,0.508
2014-08-17 03:47:00,1801E-3,5C000000,-0724,0828,11955,030.7,045.6,0.471,728.3,01.19,0.508
2014-08-17 03:48:00,1875E-3,5C000000,-0724,0828,12133,030.7,045.6,0.471,728.1,01.19,0.508
2014-08-17 03:49:00,1786E-3,5C000000,-0724,0827,12180,030.7,045.6,0.471,728.2,01.19,0.508
2014-08-17 03:50:00,1777E-3,5C000000,-0724,0826,12229,030.7,045.6,0.471,728.2,01.19,0.508
2014-08-17 03:51:00,1794E-3,5C000000,-0724,0826,12423,030.7,045.6,0.471,728.2,01.19,0.508
2014-08-17 03:52:00,1870E-3,5C000000,-0724,0827,12232,030.7,045.6,0.471,728.3,01.19,0.508
2014-08-17 03:53:00,1787E-3,5C000000,-0724,0825,12365,030.7,045.6,0.471,728.3,01.19,0.508
2014-08-17 03:54:00,1811E-3,5C000000,-0724,0828,12196,030.7,045.6,0.471,728.3,01.19,0.508
2014-08-17 03:55:00,1775E-3,5C000000,-0724,0826,12157,030.7,045.6,0.471,728.1,01.19,0.508
2014-08-17 03:56:00,1767E-3,5C000000,-0724,0827,12280,030.7,045.6,0.471,728.1,01.19,0.508
2014-08-17 03:57:00,1850E-3,5C000000,-0724,0826,12189,030.7,045.6,0.471,728.3,01.19,0.508
2014-08-17 03:58:00,1866E-3,5C000000,-0724,0829,12201,030.7,045.6,0.471,728.3,01.19,0.508
2014-08-17 03:59:00,1803E-3,5C000000,-0724,0829,12318,030.7,045.6,0.471,728.3,01.19,0.508
2014-08-17 04:00:00,1823E-3,5C000000,-0724,0828,11933,030.7,045.6,0.471,728.1,01.19,0.508
2014-08-17 04:01:00,1976E-3,5C000000,-0724,0828,12367,030.7,045.6,0.471,728.3,01.19,0.508
2014-08-17 04:02:00,1747E-3,5C000000,-0724,0828,12125,030.7,045.6,0.471,728.3,01.19,0.508
2014-08-17 04:03:00,1762E-3,5C000000,-0724,0828,12180,030.7,045.6,0.471,728.3,01.19,0.508
2014-08-17 04:04:00,1796E-3,5C000000,-0724,0828,12239,030.7,045.6,0.471,728.4,01.19,0.508
2014-08-17 04:05:00,1877E-3,5C000000,-0724,0830,12280,030.7,045.6,0.471,728.3,01.19,0.508
2014-08-17 04:06:00,1776E-3,5C000000,-0724,0828,12200,030.7,045.6,0.471,728.3,01.19,0.508
2014-08-17 04:07:00,1740E-3,5C000000,-0724,0827,12035,030.6,045.6,0.471,728.3,01.19,0.508
2014-08-17 04:08:00,1942E-3,5C000000,-0724,0827,12113,030.7,045.6,0.471,728.1,01.19,0.508
2014-08-17 04:09:00,1738E-3,5C000000,-0724,0829,12250,030.7,045.6,0.471,728.4,01.19,0.508
2014-08-17 04:10:00,1885E-3,5C000000,-0724,0828,12366,030.7,045.6,0.471,728.4,01.19,0.508
2014-08-17 04:11:00,1809E-3,5C000000,-0724,0828,12192,030.7,045.6,0.471,728.2,01.19,0.508
2014-08-17 04:12:00,1681E-3,5C000000,-0724,0828,12203,030.7,045.5,0.471,728.4,01.19,0.508
2014-08-17 04:13:00,1797E-3,5C000000,-0724,0828,12377,030.7,045.6,0.471,728.4,01.19,0.508
2014-08-17 04:14:00,1763E-3,5C000000,-0724,0827,12223,030.7,045.6,0.471,728.4,01.19,0.508
2014-08-17 04:15:00,1794E-3,5C000000,-0724,0827,12121,030.7,045.6,0.471,728.5,01.19,0.508
2014-08-17 04:16:00,1891E-3,5C000000,-0724,0827,12310,030.6,045.6,0.471,728.4,01.19,0.508
2014-08-17 04:17:00,1842E-3,5C000000,-0724,0828,12207,030.7,045.6,0.471,728.4,01.19,0.508
2014-08-17 04:18:00,1697E-3,5C000000,-0724,0828,12346,030.6,045.6,0.471,728.4,01.19,0.508
2014-08-17 04:19:00,1789E-3,5C000000,-0724,0828,12168,030.7,045.6,0.471,728.4,01.19,0.508
2014-08-17 04:20:00,1857E-3,5C000000,-0724,0830,12333,030.7,045.6,0.471,728.4,01.19,0.508